Weather History for KMZZ - February, 2014

Change the Weather History Date:

Thursday, February 13, 2014

  Actual Average (KMIE) Record (KMIE)
Temperature  
Mean Temperature 15 °F 29 °F  
Max Temperature 31 °F 37 °F 66 °F (1984)
Min Temperature -1 °F 21 °F -5 °F (1981)
Degree Days  
Heating Degree Days 50 36  
Month to date heating degree days 483  
Since 1 July heating degree days 3876  
Cooling Degree Days 0 0  
Month to date cooling degree days 0  
Year to date cooling degree days 0  
Moisture  
Dew Point 6 °F    
Average Humidity 68    
Maximum Humidity 83    
Minimum Humidity 47    
Precipitation  
Precipitation 0.00 in 0.09 in 0.43 in (1990)
Month to date precipitation 1.08  
Year to date precipitation 3.31  
Sea Level Pressure  
Sea Level Pressure 29.82 in    
Wind  
Wind Speed 5 mph (South)    
Max Wind Speed 20 mph    
Max Gust Speed 21 mph    
Visibility 7 miles    
Events      
T = Trace of Precipitation, MM = Missing Value Source: NWS Daily Summary

Daily Weather History Graph

Daily Weather History Graph

Search for Another Location

Airport or City:

Trip Planner

Search our weather history database for the weather conditions in past years. The results will help you decide how hot, cold, wet, or windy it might be!

Date:

Astronomy

Feb. 13, 2014 Rise Set
Actual Time 7:38 AM EST 6:15 PM EST
Civil Twilight 7:10 AM EST 6:43 PM EST
Nautical Twilight 6:38 AM EST 7:15 PM EST
Astronomical Twilight 6:07 AM EST 7:47 PM EST
Moon 5:23 PM EST (2/13) 6:31 AM EST (2/13)
Length of Visible Light 11h 32m
Length of Day
10h 36m
Waxing Gibbous, 98% of the Moon is Illuminated
Feb 13
Waxing Gibbous
Feb 14
Full
Feb 22
Last Quarter
Mar 1
New
Mar 8
First Quarter

Hourly Weather History & Observations

Time (EST) Temp. Windchill Dew Point Humidity Pressure Visibility Wind Dir Wind Speed Gust Speed Precip Events Conditions
12:15 AM 7.0 °F -1.7 °F 0.5 °F 75% 30.03 in 7.0 mi NE 4.6 mph - N/A   Clear
12:35 AM 7.2 °F -1.5 °F 0.7 °F 75% 30.01 in 7.0 mi East 4.6 mph - N/A   Clear
12:55 AM 6.8 °F -3.5 °F 0.3 °F 75% 30.01 in 7.0 mi East 5.8 mph - N/A   Clear
1:15 AM 6.4 °F -2.4 °F -0.2 °F 74% 30.01 in 7.0 mi East 4.6 mph - N/A   Clear
1:35 AM 5.7 °F -3.2 °F -0.6 °F 75% 30.00 in 7.0 mi NE 4.6 mph - N/A   Clear
1:55 AM 6.6 °F -0.3 °F 0.5 °F 76% 30.00 in 7.0 mi North 3.5 mph - N/A   Clear
2:15 AM 4.5 °F -2.7 °F -1.3 °F 77% 30.00 in 7.0 mi North 3.5 mph - N/A   Clear
2:35 AM 2.5 °F -5.0 °F -2.6 °F 79% 29.99 in 5.0 mi North 3.5 mph - N/A   Haze
2:55 AM 0.1 °F -7.7 °F -4.4 °F 81% 29.99 in 5.0 mi North 3.5 mph - N/A   Clear
3:15 AM -0.0 °F -7.9 °F -4.4 °F 82% 29.99 in 5.0 mi North 3.5 mph - N/A   Haze
3:35 AM -0.2 °F -11.8 °F -4.5 °F 82% 29.98 in 5.0 mi NNW 5.8 mph - N/A   Haze
3:55 AM -1.3 °F -11.4 °F -5.6 °F 82% 29.97 in 5.0 mi NNE 4.6 mph - N/A   Clear
4:15 AM 0.7 °F -13.3 °F -3.5 °F 83% 29.97 in 5.0 mi ESE 8.1 mph - N/A   Haze
4:35 AM 2.1 °F -5.4 °F -2.2 °F 82% 29.97 in 5.0 mi East 3.5 mph - N/A   Clear
4:55 AM 3.9 °F -5.3 °F -0.6 °F 82% 29.97 in 5.0 mi ENE 4.6 mph - N/A   Haze
5:15 AM 3.9 °F - -0.6 °F 82% 29.98 in 5.0 mi Calm Calm - N/A   Haze
5:35 AM 3.9 °F - -0.6 °F 82% 29.97 in 7.0 mi Calm Calm - N/A   Clear
5:55 AM 3.6 °F - -1.1 °F 81% 29.97 in 5.0 mi Calm Calm - N/A   Haze
6:15 AM 3.0 °F -4.4 °F -1.5 °F 82% 29.96 in 5.0 mi ENE 3.5 mph - N/A   Clear
6:35 AM 2.5 °F - -2.0 °F 81% 29.96 in 5.0 mi Calm Calm - N/A   Haze
6:55 AM 1.6 °F -8.0 °F -2.6 °F 83% 29.94 in 5.0 mi ESE 4.6 mph - N/A   Clear
7:15 AM 3.0 °F -4.4 °F -1.1 °F 83% 29.94 in 5.0 mi East 3.5 mph - N/A   Haze
7:35 AM 3.0 °F -6.4 °F -1.1 °F 83% 29.93 in 4.0 mi East 4.6 mph - N/A   Clear
7:55 AM 2.7 °F -4.8 °F -1.7 °F 82% 29.92 in 4.0 mi ESE 3.5 mph - N/A   Clear
8:15 AM 2.5 °F - -1.8 °F 82% 29.93 in 3.0 mi Calm Calm - N/A   Clear
8:35 AM 2.1 °F - -2.2 °F 82% 29.93 in 4.0 mi Calm Calm - N/A   Clear
8:55 AM 1.0 °F - -3.3 °F 82% 29.92 in 3.0 mi Calm Calm - N/A   Clear
9:15 AM 2.5 °F -5.0 °F -2.0 °F 81% 29.91 in 5.0 mi SSE 3.5 mph - N/A   Haze
9:35 AM 5.4 °F -5.2 °F 0.1 °F 79% 29.90 in 5.0 mi SE 5.8 mph - N/A   Haze
9:55 AM 9.3 °F -0.5 °F 2.8 °F 75% 29.89 in 5.0 mi SE 5.8 mph - N/A   Haze
10:15 AM 10.9 °F - 3.2 °F 71% 29.89 in 7.0 mi Calm Calm - N/A   Clear
10:35 AM 11.8 °F 2.5 °F 3.7 °F 70% 29.89 in 7.0 mi South 5.8 mph - N/A   Clear
10:55 AM 13.1 °F 4.0 °F 4.3 °F 68% 29.87 in 7.0 mi SSE 5.8 mph - N/A   Clear
11:15 AM 14.9 °F 7.5 °F 5.2 °F 65% 29.87 in 7.0 mi South 4.6 mph - N/A   Clear
11:35 AM 16.5 °F 9.4 °F 5.9 °F 63% 29.86 in 7.0 mi SE 4.6 mph - N/A   Clear
11:55 AM 19.8 °F 14.7 °F 6.6 °F 57% 29.86 in 7.0 mi South 3.5 mph - N/A   Clear
12:15 PM 20.3 °F - 6.6 °F 56% 29.86 in 7.0 mi Calm Calm - N/A   Clear
12:35 PM 20.7 °F - 7.9 °F 58% 29.83 in 7.0 mi Calm Calm - N/A   Clear
12:55 PM 22.3 °F 17.6 °F 9.3 °F 58% 29.80 in 7.0 mi SE 3.5 mph - N/A   Clear
1:15 PM 24.6 °F 18.8 °F 9.3 °F 52% 29.79 in 10.0 mi South 4.6 mph - N/A   Clear
1:35 PM 25.7 °F 21.5 °F 9.9 °F 51% 29.79 in 10.0 mi South 3.5 mph - N/A   Clear
1:55 PM 26.6 °F 22.6 °F 10.6 °F 51% 29.78 in 10.0 mi SW 3.5 mph - N/A   Clear
2:35 PM 25.9 °F 21.7 °F 13.6 °F 60% 29.76 in 7.0 mi WSW 3.5 mph - N/A   Clear
2:55 PM 26.6 °F 21.2 °F 14.0 °F 59% 29.75 in 7.0 mi South 4.6 mph - N/A   Scattered Clouds
3:15 PM 28.4 °F 21.2 °F 14.0 °F 55% 29.74 in 10.0 mi South 6.9 mph - N/A   Scattered Clouds
3:35 PM 29.1 °F 20.6 °F 14.0 °F 53% 29.72 in 10.0 mi South 9.2 mph - N/A   Overcast
3:55 PM 29.3 °F 21.5 °F 14.4 °F 54% 29.70 in 7.0 mi South 8.1 mph - N/A   Overcast
4:15 PM 30.0 °F 22.4 °F 14.2 °F 52% 29.69 in 10.0 mi South 8.1 mph - N/A   Overcast
4:35 PM 31.1 °F 22.4 °F 13.8 °F 49% 29.68 in 10.0 mi South 10.4 mph - N/A   Mostly Cloudy
4:55 PM 31.3 °F 23.9 °F 14.0 °F 49% 29.66 in 7.0 mi SSE 8.1 mph - N/A   Mostly Cloudy
5:15 PM 31.3 °F 23.3 °F 13.1 °F 47% 29.65 in 10.0 mi South 9.2 mph - N/A   Mostly Cloudy
5:35 PM 31.5 °F 22.9 °F 13.3 °F 47% 29.64 in 10.0 mi South 10.4 mph - N/A   Overcast
5:55 PM 30.2 °F 21.9 °F 12.9 °F 49% 29.64 in 10.0 mi South 9.2 mph - N/A   Mostly Cloudy
6:15 PM 28.2 °F 18.9 °F 12.2 °F 51% 29.63 in 10.0 mi South 10.4 mph - N/A   Scattered Clouds
6:35 PM 26.8 °F 17.7 °F 11.5 °F 53% 29.63 in 10.0 mi South 9.2 mph - N/A   Clear
6:55 PM 26.4 °F 17.3 °F 11.3 °F 53% 29.63 in 10.0 mi South 9.2 mph - N/A   Clear
7:15 PM 25.5 °F 16.2 °F 11.3 °F 55% 29.63 in 10.0 mi SSW 9.2 mph - N/A   Clear
7:55 PM 21.9 °F 11.0 °F 10.4 °F 61% 29.64 in 10.0 mi SSW 10.4 mph - N/A   Clear
8:15 PM 21.7 °F 10.2 °F 11.3 °F 64% 29.63 in 10.0 mi SSW 11.5 mph - N/A   Mostly Cloudy
8:55 PM 25.9 °F 16.0 °F 15.1 °F 64% 29.61 in 10.0 mi SSW 10.4 mph - N/A   Overcast
9:15 PM 27.0 °F 16.7 °F 16.5 °F 65% 29.61 in 10.0 mi SW 11.5 mph - N/A   Overcast
9:35 PM 28.6 °F 17.2 °F 17.1 °F 62% 29.61 in 10.0 mi SW 15.0 mph 20.7 mph N/A   Overcast
9:55 PM 30.4 °F 18.7 °F 17.4 °F 59% 29.60 in 10.0 mi SW 17.3 mph - N/A   Overcast
10:15 PM 31.1 °F 18.9 °F 18.9 °F 61% 29.60 in 10.0 mi WSW 19.6 mph - N/A   Overcast
10:35 PM 31.5 °F 20.5 °F 19.2 °F 61% 29.59 in 10.0 mi WSW 16.1 mph - N/A   Overcast
10:55 PM 30.7 °F 19.6 °F 19.6 °F 63% 29.58 in 10.0 mi WSW 16.1 mph - N/A   Overcast
11:15 PM 30.4 °F 18.7 °F 20.7 °F 67% 29.57 in 10.0 mi SW 17.3 mph - N/A   Overcast
11:35 PM 30.9 °F 19.1 °F 21.2 °F 67% 29.56 in 10.0 mi WSW 18.4 mph - N/A   Overcast
11:55 PM 31.1 °F 20.5 °F 21.7 °F 68% 29.56 in 10.0 mi WSW 15.0 mph - N/A   Overcast